Zurück zum Katalog

STARLINK-31712

AktivKommunikationVLEO
NORAD 59491·PAYLOAD·🇺🇸 United States

Gestartet Apr 13, 2024 von Cape Canaveral Space Force Station

Loading…

Nächste Überflüge (nächste 24 Stunden)

TLE

AktuellSource: CelesTrak SupGP

Epoche: Sep 14, 2026, 20:59 UTC

1 59491C 24071H   26257.87479167  .00022791  00000+0  82551-3 0  2574
2 59491  43.0017   2.7353 0001492 273.2331 212.3037 15.27566522    12

Verfolge STARLINK-31712 in Echtzeit mit AllMySat

Download on the App Store